SL-16 DEB, 43353

Orbit data source: Space-Track

SL-16 DEB, 43353 is space debris in LEO originally from a launch on Tue, 31 Oct 1995 UTC launched from the Tyuratam Missile And Space Complex (TTMTR). Debris objects in space refer to the collection of defunct objects orbiting the Earth. Examples of debris include non-operational satellites, rocket bodies, and fragments generated from explosions, collisions, or faulty payload assembly.

Loading next visibility...
Identifier
43353, 1995-058N
Orbit
LEO
Country
Flag of CISCIS
Related business
Manufacturer
Unknown
Mission
Spacecraft
Bus & Motor
Unknown
Mass
Unknown
Launch date (UTC)
1995-10-31 (31 years ago)
Launch vehicle
Unknown
Launch site
Tyuratam Missile And Space Complex (TTMTR)
Object type
Payload
Rocket body
Debris
Shape & HBR
Unknown shape, 0.2 m
Radar Cross Section
Medium (>0.1 m² and <1 m²)

Expand to show TLE details & history
Last TLE update: 2 days ago

TLE from 2 days ago
0 SL-16 DEB
1 43353U 95058N   26171.21953876  .00015999  00000-0  23854-2 0  9990
2 43353  70.9851  83.6614 0020712 151.7729 208.4552 14.74751816656414
Epoch: 2026-06-20T05:16Z
TLE epoch observation values (Epoch: 2026-06-20T05:16:08.148Z)
Latitude
-0.00008°
Longitude
96.19012°
Altitude
661.205 km
Speed
7.52 km/s
True Right ascension
05h 34m 38s
True Declination
0° 00' 00"
Sunlit
Object was in daylight at epoch
Visualization orbit readout
Latitude
Unknown
Longitude
Unknown
Altitude
Unknown
Speed
Unknown
Apparent Right ascension
Unknown
Apparent Declination
Unknown
Sunlit
N/A
Visualization observer readout
Local Sidereal Time
21:34:47
Azimuth
Unknown
Elevation
Unknown
Doppler factor
Unknown
Orbital elements
Apogee altitude
658.351 km
Perigee altitude
629.263 km
Semi-major axis
7,021.944 km
Eccentricity
0.00207
Inclination
70.9851°
RAAN
83.6614°
Arg. of periapsis
151.7729°
True anomaly
208.34237°
Mean anomaly
208.4552°
Eccentric anomaly
208.39876°
Mean motion
3.68856 °/min
Orbital period
97.6 mins
BSTAR
0.0023854
Loading maneuver chart data...
Computing Atmospheric mass density...
Loading historical data...
Loading historical data...
Loading historical data...
Loading historical data...
Loading historical data...
Loading historical data...
Loading historical data...

Documentation

Showing up to 5 results
|